{"data":{"norad_id":58771,"intl_designator":"2024-011G","name":"STARLINK-31135","alt_names":[],"object_type":"PAYLOAD","status":"ACTIVE","operator":null,"country":"US","launch_date":"2024-01-14","launch_site_code":"AFWTR","launch_vehicle":null,"mission":null,"orbit_class":"UNKNOWN","rcs_meters":null,"size_class":null,"mass_kg":null,"dimensions":null,"purposes":["comms"],"wikipedia_slug":null,"has_3d_model":false,"image_url":null,"decayed_at":null,"tle_current":{"epoch":"2026-05-24T22:27:12.290688Z","epoch_age_seconds":83781,"freshness":"FRESH","line1":"1 58771U 24011G   26144.93555892 -.00001007  00000+0 -21868-4 0  9997","line2":"2 58771  53.1603  17.4277 0001253  91.0567 269.0577 15.30198004131973","mean_motion":15.30198004,"eccentricity":0.0001253,"inclination_deg":53.1603,"raan_deg":17.4277,"arg_perigee_deg":91.0567,"mean_anomaly_deg":269.0577,"bstar":-2.1868e-5,"rev_number":13197,"period_min":94.105468458055,"perigee_km":474.36230336097,"apogee_km":476.07975488307,"semimajor_km":6853.358029122,"source":"CELESTRAK","updated_at":"2026-05-25T13:38:18.745138Z"}}}